Weather History for Alva, OK

Change the Weather History Date:

Monday, March 25, 2013

  Actual Average Record
Temperature  
Mean Temperature 32 °F -  
Max Temperature 41 °F 63 °F 94 °F (1956)
Min Temperature 23 °F 37 °F 16 °F (1955)
Degree Days  
Heating Degree Days 33    
Moisture  
Dew Point 16 °F    
Average Humidity 52    
Maximum Humidity 74    
Minimum Humidity 31    
Precipitation  
Precipitation 0.00 in - - ()
Sea Level Pressure  
Sea Level Pressure 30.33 in    
Wind  
Wind Speed 15 mph (NNW)    
Max Wind Speed 29 mph    
Max Gust Speed 34 mph    
Visibility 10 miles    
Events      
Averages and records for this station are not official NWS values.
T = Trace of Precipitation, MM = Missing Value Source: NWS Daily Summary

Daily Weather History Graph

Daily Weather History Graph

Search for Another Location

Airport:

Trip Planner

Search our weather history database for the weather conditions in past years. The results will help you decide how hot, cold, wet, or windy it might be!

Date:

Astronomy

Mar. 25, 2013 Rise Set
Actual Time 7:30 AM CDT 7:51 PM CDT
Civil Twilight 7:04 AM CDT 8:17 PM CDT
Nautical Twilight 6:34 AM CDT 8:47 PM CDT
Astronomical Twilight 6:03 AM CDT 9:18 PM CDT
Moon 6:25 PM CDT (3/25) 6:12 AM CDT (3/25)
Length of Visible Light 13h 12m
Length of Day
12h 20m
Waxing Gibbous, 96% of the Moon is Illuminated
Mar 25
Waxing Gibbous
Mar 27
Full
Apr 2
Last Quarter
Apr 10
New
Apr 18
First Quarter

Hourly Weather History & Observations

Time (CDT) Temp. Windchill Dew Point Humidity Pressure Visibility Wind Dir Wind Speed Gust Speed Precip Events Conditions
12:10 AM 32.0 °F 23.0 °F 19.4 °F 60% 30.22 in 10.0 mi NW 11.5 mph - N/A   Partly Cloudy
12:30 AM 30.2 °F 21.3 °F 19.4 °F 64% 30.23 in 10.0 mi NW 10.4 mph - N/A   Clear
12:50 AM 30.2 °F 20.8 °F 19.4 °F 64% 30.23 in 10.0 mi NNW 11.5 mph - N/A   Clear
1:10 AM 32.0 °F 23.0 °F 19.4 °F 60% 30.23 in 10.0 mi NNW 11.5 mph 17.3 mph N/A   Clear
1:30 AM 30.2 °F 21.3 °F 19.4 °F 64% 30.23 in 10.0 mi NNW 10.4 mph - N/A   Clear
1:50 AM 32.0 °F 23.0 °F 19.4 °F 60% 30.23 in 10.0 mi NNW 11.5 mph 16.1 mph N/A   Clear
2:10 AM 32.0 °F 20.8 °F 19.4 °F 60% 30.23 in 10.0 mi NW 17.3 mph 21.9 mph N/A   Clear
2:30 AM 30.2 °F 19.8 °F 19.4 °F 64% 30.24 in 10.0 mi NNW 13.8 mph 20.7 mph N/A   Clear
2:50 AM 30.2 °F 18.5 °F 19.4 °F 64% 30.25 in 10.0 mi NNW 17.3 mph 23.0 mph N/A   Partly Cloudy
3:10 AM 30.2 °F 18.1 °F 19.4 °F 64% 30.26 in 10.0 mi NNW 18.4 mph 25.3 mph N/A   Partly Cloudy
3:30 AM 28.4 °F 15.4 °F 19.4 °F 69% 30.26 in 10.0 mi NNW 19.6 mph 25.3 mph N/A   Partly Cloudy
3:50 AM 28.4 °F 15.4 °F 19.4 °F 69% 30.26 in 10.0 mi NNW 19.6 mph - N/A   Partly Cloudy
4:10 AM 28.4 °F 15.8 °F 19.4 °F 69% 30.26 in 10.0 mi NNW 18.4 mph 24.2 mph N/A   Clear
4:30 AM 28.4 °F 16.2 °F 19.4 °F 69% 30.26 in 10.0 mi NNW 17.3 mph 25.3 mph N/A   Partly Cloudy
4:50 AM 26.6 °F 15.2 °F 17.6 °F 69% 30.27 in 10.0 mi NNW 13.8 mph - N/A   Partly Cloudy
5:10 AM 26.6 °F 14.7 °F 17.6 °F 69% 30.28 in 10.0 mi NNW 15.0 mph 21.9 mph N/A   Scattered Clouds
5:30 AM 26.6 °F 14.3 °F 17.6 °F 69% 30.29 in 10.0 mi NNW 16.1 mph - N/A   Mostly Cloudy
5:50 AM 26.6 °F 13.4 °F 17.6 °F 69% 30.29 in 10.0 mi NNW 18.4 mph - N/A   Partly Cloudy
6:10 AM 24.8 °F 12.9 °F 17.6 °F 74% 30.29 in 10.0 mi NW 13.8 mph - N/A   Clear
6:50 AM 24.8 °F 13.4 °F 15.8 °F 69% 30.30 in 10.0 mi NNW 12.7 mph 17.3 mph N/A   Scattered Clouds
7:10 AM 23.0 °F 12.4 °F 15.8 °F 74% 30.31 in 10.0 mi NW 10.4 mph - N/A   Clear
7:30 AM 23.0 °F 13.1 °F 15.8 °F 74% 30.32 in 10.0 mi NW 9.2 mph - N/A   Clear
7:50 AM 23.0 °F 13.1 °F 15.8 °F 74% 30.33 in 10.0 mi NW 9.2 mph - N/A   Clear
8:10 AM 24.8 °F 13.4 °F 15.8 °F 69% 30.34 in 10.0 mi NW 12.7 mph 17.3 mph N/A   Clear
8:30 AM 24.8 °F 12.9 °F 15.8 °F 69% 30.34 in 10.0 mi NW 13.8 mph 18.4 mph N/A   Clear
8:50 AM 26.6 °F 12.7 °F 15.8 °F 64% 30.35 in 10.0 mi NNW 20.7 mph 26.5 mph N/A   Clear
9:10 AM 28.4 °F 15.8 °F 15.8 °F 59% 30.36 in 10.0 mi NNW 18.4 mph 26.5 mph N/A   Clear
9:30 AM 28.4 °F 15.8 °F 15.8 °F 59% 30.37 in 10.0 mi NNW 18.4 mph 25.3 mph N/A   Clear
9:50 AM 30.2 °F 17.4 °F 15.8 °F 55% 30.37 in 10.0 mi NNW 20.7 mph 27.6 mph N/A   Clear
10:10 AM 32.0 °F 19.8 °F 15.8 °F 51% 30.37 in 10.0 mi NNW 20.7 mph 25.3 mph N/A   Clear
10:30 AM 32.0 °F 19.5 °F 14.0 °F 48% 30.38 in 10.0 mi NNW 21.9 mph 29.9 mph N/A   Clear
10:50 AM 32.0 °F 19.8 °F 14.0 °F 48% 30.38 in 10.0 mi NNW 20.7 mph 28.8 mph N/A   Clear
11:10 AM 33.8 °F 21.6 °F 14.0 °F 44% 30.38 in 10.0 mi NNW 23.0 mph 28.8 mph N/A   Partly Cloudy
11:30 AM 35.6 °F 24.0 °F 14.0 °F 41% 30.38 in 10.0 mi North 23.0 mph 29.9 mph N/A   Clear
11:50 AM 35.6 °F 25.2 °F 14.0 °F 41% 30.38 in 10.0 mi NNW 18.4 mph 29.9 mph N/A   Clear
12:10 PM 35.6 °F 22.7 °F 12.2 °F 38% 30.38 in 10.0 mi NNW 28.8 mph 33.4 mph N/A   Clear
12:30 PM 35.6 °F 23.7 °F 12.2 °F 38% 30.37 in 10.0 mi NNW 24.2 mph 29.9 mph N/A   Clear
12:50 PM 37.4 °F 26.1 °F 12.2 °F 36% 30.37 in 10.0 mi NNW 24.2 mph 32.2 mph N/A   Clear
1:10 PM 37.4 °F 26.4 °F 10.4 °F 33% 30.36 in 10.0 mi NNW 23.0 mph 29.9 mph N/A   Clear
1:30 PM 39.2 °F 28.3 °F 12.2 °F 33% 30.36 in 10.0 mi NNW 25.3 mph 31.1 mph N/A   Clear
1:50 PM 39.2 °F 29.0 °F 14.0 °F 36% 30.36 in 10.0 mi NW 21.9 mph 28.8 mph N/A   Clear
2:10 PM 39.2 °F 28.7 °F 14.0 °F 36% 30.36 in 10.0 mi North 23.0 mph 34.5 mph N/A   Scattered Clouds
2:30 PM 39.2 °F 29.6 °F 14.0 °F 36% 30.35 in 10.0 mi North 19.6 mph 28.8 mph N/A   Scattered Clouds
2:50 PM 39.2 °F 30.2 °F 14.0 °F 36% 30.35 in 10.0 mi NNW 17.3 mph 25.3 mph N/A   Scattered Clouds
3:10 PM 39.2 °F 29.3 °F 14.0 °F 36% 30.34 in 10.0 mi NNW 20.7 mph 29.9 mph N/A   Partly Cloudy
3:30 PM 39.2 °F 30.2 °F 14.0 °F 36% 30.33 in 10.0 mi NW 17.3 mph 27.6 mph N/A   Scattered Clouds
3:50 PM 41.0 °F 31.4 °F 14.0 °F 33% 30.33 in 10.0 mi NW 21.9 mph 27.6 mph N/A   Scattered Clouds
4:10 PM 41.0 °F 31.4 °F 14.0 °F 33% 30.32 in 10.0 mi NNW 21.9 mph 26.5 mph N/A   Mostly Cloudy
4:30 PM 39.2 °F 29.0 °F 14.0 °F 36% 30.32 in 10.0 mi NW 21.9 mph 27.6 mph N/A   Mostly Cloudy
4:50 PM 41.0 °F 32.5 °F 14.0 °F 33% 30.32 in 10.0 mi NW 17.3 mph 26.5 mph N/A   Mostly Cloudy
5:10 PM 41.0 °F 32.5 °F 14.0 °F 33% 30.32 in 10.0 mi NNW 17.3 mph 27.6 mph N/A   Mostly Cloudy
5:30 PM 41.0 °F 32.2 °F 12.2 °F 31% 30.32 in 10.0 mi NW 18.4 mph 25.3 mph N/A   Scattered Clouds
5:50 PM 41.0 °F 31.9 °F 12.2 °F 31% 30.32 in 10.0 mi NNW 19.6 mph 25.3 mph N/A   Mostly Cloudy
6:10 PM 39.2 °F 29.8 °F 12.2 °F 33% 30.33 in 10.0 mi NNW 18.4 mph 25.3 mph N/A   Mostly Cloudy
6:30 PM 39.2 °F 29.3 °F 12.2 °F 33% 30.33 in 10.0 mi NNW 20.7 mph 27.6 mph N/A   Scattered Clouds
6:50 PM 39.2 °F 30.8 °F 14.0 °F 36% 30.34 in 10.0 mi NNW 15.0 mph 20.7 mph N/A   Partly Cloudy
7:10 PM 37.4 °F 28.5 °F 14.0 °F 38% 30.34 in 10.0 mi NNW 15.0 mph 19.6 mph N/A   Clear
7:30 PM 37.4 °F 29.8 °F 14.0 °F 38% 30.35 in 10.0 mi NNW 11.5 mph - N/A   Clear
7:50 PM 35.6 °F 27.5 °F 14.0 °F 41% 30.35 in 10.0 mi North 11.5 mph - N/A   Clear
8:10 PM 32.0 °F 24.2 °F 14.0 °F 48% 30.35 in 10.0 mi North 9.2 mph - N/A   Clear
8:30 PM 32.0 °F 24.8 °F 14.0 °F 48% 30.35 in 10.0 mi North 8.1 mph - N/A   Clear
8:50 PM 30.2 °F 21.9 °F 14.0 °F 51% 30.36 in 10.0 mi North 9.2 mph - N/A   Partly Cloudy
9:10 PM 30.2 °F 23.4 °F 14.0 °F 51% 30.36 in 10.0 mi North 6.9 mph - N/A   Partly Cloudy
9:30 PM 30.2 °F 23.4 °F 14.0 °F 51% 30.37 in 10.0 mi North 6.9 mph - N/A   Clear
9:50 PM 30.2 °F 24.3 °F 15.8 °F 55% 30.38 in 10.0 mi North 5.8 mph - N/A   Clear
10:10 PM 28.4 °F 23.3 °F 15.8 °F 59% 30.39 in 10.0 mi North 4.6 mph - N/A   Clear
10:30 PM 28.4 °F 22.2 °F 15.8 °F 59% 30.39 in 10.0 mi North 5.8 mph - N/A   Clear
10:50 PM 26.6 °F 20.0 °F 15.8 °F 64% 30.39 in 10.0 mi NNW 5.8 mph - N/A   Clear
11:10 PM 26.6 °F 22.6 °F 15.8 °F 64% 30.40 in 10.0 mi NNW 3.5 mph - N/A   Clear
11:50 PM 28.4 °F 24.6 °F 15.8 °F 59% 30.40 in 10.0 mi North 3.5 mph - N/A   Clear